GEOFB FMCH-FMNA

Flight info

Callsign GEOFB
Flight time 0h 40m
Altitude 39000
Route HAI UN305 VOHID DCT BIRAL UL433 DO
Aircraft C750/M-SBDE3FGHRWXY/S

Departure

Time 2026-05-04 18:06
Airport Prince Said Ibrahim International Airport (FMCH)

Arrival

Time 2026-05-04 18:47
Airport Arrachart Airport (FMNA)
Time Latitude Longitude Altitude Speed Heading
2026-05-04 18:03 -11.53686 43.27425 76 ft 0 kts 262°
2026-05-04 18:04 -11.53687 43.27413 72 ft 4 kts 264°
2026-05-04 18:05 -11.53688 43.27369 76 ft 9 kts 269°
2026-05-04 18:05 -11.53680 43.27296 73 ft 12 kts 281°
2026-05-04 18:05 -11.53663 43.27197 75 ft 15 kts 278°
2026-05-04 18:05 -11.53613 43.27147 75 ft 9 kts
2026-05-04 18:06 -11.52583 43.27333 153 ft 151 kts 11°
2026-05-04 18:06 -11.51570 43.27563 641 ft 159 kts 21°
2026-05-04 18:06 -11.50491 43.28151 1064 ft 182 kts 37°
2026-05-04 18:07 -11.49681 43.29240 1478 ft 208 kts 64°
2026-05-04 18:07 -11.49033 43.30513 2625 ft 189 kts 64°
2026-05-04 18:07 -11.48449 43.31675 3552 ft 191 kts 64°
2026-05-04 18:07 -11.47714 43.32950 3835 ft 224 kts 59°
2026-05-04 18:08 -11.46871 43.34408 4136 ft 254 kts 60°
2026-05-04 18:08 -11.45964 43.36068 4440 ft 282 kts 62°
2026-05-04 18:08 -11.44993 43.37870 5070 ft 292 kts 62°
2026-05-04 18:08 -11.44013 43.39663 6075 ft 289 kts 62°
2026-05-04 18:09 -11.42058 43.43236 7701 ft 293 kts 62°
2026-05-04 18:09 -11.40060 43.46897 9572 ft 299 kts 62°
2026-05-04 18:10 -11.39041 43.48761 10402 ft 305 kts 62°
2026-05-04 18:10 -11.37965 43.50733 10712 ft 332 kts 62°
2026-05-04 18:10 -11.36796 43.52873 10858 ft 360 kts 62°
2026-05-04 18:10 -11.35564 43.55125 11245 ft 372 kts 62°
2026-05-04 18:11 -11.34296 43.57432 11775 ft 375 kts 62°
2026-05-04 18:11 -11.33019 43.59764 12239 ft 378 kts 62°
2026-05-04 18:11 -11.31738 43.62116 12728 ft 381 kts 62°
2026-05-04 18:11 -11.30446 43.64480 13220 ft 383 kts 62°
2026-05-04 18:12 -11.29145 43.66854 13684 ft 385 kts 62°
2026-05-04 18:12 -11.27840 43.69238 14140 ft 387 kts 62°
2026-05-04 18:12 -11.26526 43.71640 14580 ft 389 kts 62°
2026-05-04 18:12 -11.25208 43.74048 15018 ft 390 kts 62°
2026-05-04 18:13 -11.23883 43.76467 15419 ft 393 kts 62°
2026-05-04 18:13 -11.22569 43.78862 15859 ft 394 kts 62°
2026-05-04 18:13 -11.19882 43.83767 16708 ft 397 kts 62°
2026-05-04 18:14 -11.18845 43.86373 17006 ft 400 kts 75°
2026-05-04 18:14 -11.18346 43.89151 17479 ft 400 kts 84°
2026-05-04 18:14 -11.18367 43.91985 17895 ft 403 kts 95°
2026-05-04 18:15 -11.19479 43.97609 18748 ft 408 kts 101°
2026-05-04 18:15 -11.20652 44.03270 19544 ft 414 kts 101°
2026-05-04 18:15 -11.21258 44.06146 19977 ft 417 kts 101°
2026-05-04 18:16 -11.21874 44.09049 20379 ft 420 kts 101°
2026-05-04 18:16 -11.22486 44.11970 20785 ft 424 kts 101°
2026-05-04 18:16 -11.23252 44.15644 21276 ft 427 kts 101°
2026-05-04 18:17 -11.25733 44.27498 22752 ft 439 kts 102°
2026-05-04 18:17 -11.27009 44.33598 23468 ft 444 kts 102°
2026-05-04 18:17 -11.29589 44.45970 24741 ft 454 kts 102°
2026-05-04 18:18 -11.30905 44.52292 25311 ft 459 kts 102°
2026-05-04 18:18 -11.32234 44.58684 25886 ft 464 kts 102°
2026-05-04 18:18 -11.33578 44.65145 26456 ft 468 kts 102°
2026-05-04 18:18 -11.34931 44.71668 27034 ft 472 kts 102°
2026-05-04 18:19 -11.37673 44.84903 28434 ft 483 kts 102°
2026-05-04 18:19 -11.39069 44.91652 29272 ft 490 kts 102°
2026-05-04 18:19 -11.40481 44.98490 30227 ft 498 kts 102°
2026-05-04 18:20 -11.41898 45.05355 31193 ft 503 kts 102°
2026-05-04 18:20 -11.43329 45.12307 32582 ft 499 kts 102°
2026-05-04 18:20 -11.44751 45.19210 33838 ft 496 kts 102°
2026-05-04 18:20 -11.46161 45.26073 35026 ft 495 kts 101°
2026-05-04 18:21 -11.47567 45.32924 36205 ft 492 kts 101°
2026-05-04 18:21 -11.48963 45.39731 37267 ft 490 kts 101°
2026-05-04 18:21 -11.50355 45.46526 38283 ft 489 kts 101°
2026-05-04 18:21 -11.51738 45.53291 39028 ft 491 kts 101°
2026-05-04 18:22 -11.53160 45.60255 38997 ft 511 kts 101°
2026-05-04 18:22 -11.54614 45.67376 39007 ft 528 kts 101°
2026-05-04 18:22 -11.56130 45.74824 39018 ft 544 kts 101°
2026-05-04 18:22 -11.57680 45.82433 39025 ft 551 kts 101°
2026-05-04 18:23 -11.60807 45.97828 39013 ft 556 kts 101°
2026-05-04 18:23 -11.63932 46.13270 39010 ft 556 kts 101°
2026-05-04 18:24 -11.67054 46.28732 39007 ft 555 kts 101°
2026-05-04 18:24 -11.70137 46.44047 38997 ft 554 kts 101°
2026-05-04 18:25 -11.73224 46.59432 39009 ft 553 kts 101°
2026-05-04 18:25 -11.76294 46.74770 38999 ft 551 kts 101°
2026-05-04 18:26 -11.79356 46.90112 39008 ft 551 kts 101°
2026-05-04 18:26 -11.82380 47.05314 39004 ft 550 kts 101°
2026-05-04 18:27 -11.85415 47.20609 39005 ft 549 kts 100°
2026-05-04 18:27 -11.86923 47.28224 38802 ft 538 kts 100°
2026-05-04 18:27 -11.88377 47.35576 37198 ft 513 kts 101°
2026-05-04 18:28 -11.89736 47.42458 35879 ft 481 kts 101°
2026-05-04 18:28 -11.91037 47.49063 34624 ft 468 kts 101°
2026-05-04 18:28 -11.92327 47.55605 33383 ft 473 kts 101°
2026-05-04 18:28 -11.93624 47.62218 32122 ft 477 kts 101°
2026-05-04 18:29 -11.94921 47.68807 30862 ft 482 kts 101°
2026-05-04 18:29 -11.96237 47.75524 29570 ft 479 kts 101°
2026-05-04 18:29 -11.97528 47.82110 28319 ft 468 kts 101°
2026-05-04 18:29 -11.98793 47.88575 27079 ft 458 kts 102°
2026-05-04 18:30 -12.01235 48.01080 24707 ft 441 kts 102°
2026-05-04 18:30 -12.02419 48.07160 23547 ft 432 kts 102°
2026-05-04 18:30 -12.03580 48.13119 22412 ft 422 kts 102°
2026-05-04 18:31 -12.04711 48.18938 21300 ft 414 kts 102°
2026-05-04 18:31 -12.05801 48.24548 20227 ft 403 kts 101°
2026-05-04 18:31 -12.06881 48.30112 19165 ft 395 kts 101°
2026-05-04 18:31 -12.07937 48.35558 18124 ft 386 kts 101°
2026-05-04 18:32 -12.08967 48.40875 17110 ft 378 kts 101°
2026-05-04 18:32 -12.09980 48.46119 16112 ft 373 kts 101°
2026-05-04 18:32 -12.10980 48.51288 15125 ft 368 kts 101°
2026-05-04 18:32 -12.11966 48.56390 14152 ft 364 kts 101°
2026-05-04 18:33 -12.12936 48.61437 13191 ft 360 kts 101°
2026-05-04 18:33 -12.13887 48.66364 12249 ft 357 kts 101°
2026-05-04 18:33 -12.14837 48.71304 11311 ft 351 kts 101°
2026-05-04 18:33 -12.15722 48.75908 10424 ft 308 kts 102°
2026-05-04 18:34 -12.16507 48.79997 9651 ft 283 kts 102°
2026-05-04 18:34 -12.17254 48.83886 8943 ft 275 kts 102°
2026-05-04 18:34 -12.17983 48.87685 8251 ft 269 kts 102°
2026-05-04 18:34 -12.18698 48.91423 7568 ft 266 kts 102°
2026-05-04 18:35 -12.19405 48.95109 6892 ft 263 kts 102°
2026-05-04 18:35 -12.20089 48.98692 6242 ft 258 kts 103°
2026-05-04 18:35 -12.20778 49.02287 5580 ft 255 kts 103°
2026-05-04 18:35 -12.21454 49.05825 4936 ft 252 kts 103°
2026-05-04 18:36 -12.22132 49.09310 4262 ft 247 kts 105°
2026-05-04 18:36 -12.23841 49.12235 4156 ft 240 kts 124°
2026-05-04 18:36 -12.25704 49.15095 4236 ft 243 kts 124°
2026-05-04 18:36 -12.27597 49.17972 4234 ft 247 kts 124°
2026-05-04 18:37 -12.29493 49.20863 4229 ft 244 kts 124°
2026-05-04 18:37 -12.31392 49.23756 4244 ft 246 kts 124°
2026-05-04 18:37 -12.33271 49.26621 4239 ft 246 kts 124°
2026-05-04 18:37 -12.35186 49.29538 4232 ft 247 kts 124°
2026-05-04 18:38 -12.37123 49.32489 4255 ft 252 kts 125°
2026-05-04 18:38 -12.39054 49.35443 4248 ft 248 kts 124°
2026-05-04 18:38 -12.40973 49.38368 4236 ft 248 kts 124°
2026-05-04 18:38 -12.42908 49.41321 4299 ft 250 kts 124°
2026-05-04 18:39 -12.44830 49.44256 4227 ft 247 kts 124°
2026-05-04 18:39 -12.46742 49.47176 4226 ft 247 kts 124°
2026-05-04 18:39 -12.48621 49.50046 4226 ft 246 kts 124°
2026-05-04 18:39 -12.50522 49.52954 4225 ft 246 kts 125°
2026-05-04 18:40 -12.52423 49.55861 4226 ft 245 kts 124°
2026-05-04 18:40 -12.53667 49.57804 4208 ft 246 kts 121°
2026-05-04 18:40 -12.53952 49.59527 4148 ft 256 kts 85°
2026-05-04 18:40 -12.53112 49.61143 4149 ft 268 kts 49°
2026-05-04 18:41 -12.51420 49.61995 4173 ft 283 kts 14°
2026-05-04 18:41 -12.45843 49.57715 4238 ft 296 kts 306°
2026-05-04 18:41 -12.40958 49.50902 4218 ft 295 kts 305°
2026-05-04 18:41 -12.40681 49.45274 3744 ft 293 kts 258°
2026-05-04 18:42 -12.40747 49.43352 3244 ft 248 kts 270°
2026-05-04 18:42 -12.40502 49.41618 2904 ft 247 kts 276°
2026-05-04 18:42 -12.40040 49.37705 2236 ft 241 kts 273°
2026-05-04 18:42 -12.38304 49.34281 1688 ft 230 kts 307°
2026-05-04 18:43 -12.37353 49.32945 1710 ft 238 kts 304°
2026-05-04 18:43 -12.36471 49.31539 1075 ft 232 kts 302°
2026-05-04 18:43 -12.35658 49.30251 520 ft 184 kts 302°
2026-05-04 18:43 -12.35039 49.29315 373 ft 135 kts 304°
2026-05-04 18:44 -12.34553 49.28589 369 ft 143 kts 305°
2026-05-04 18:44 -12.34155 49.28011 529 ft 156 kts 305°
2026-05-04 18:44 -12.33262 49.26684 1229 ft 187 kts 307°
2026-05-04 18:44 -12.32395 49.25479 1646 ft 232 kts 309°
2026-05-04 18:45 -12.31760 49.24026 1807 ft 219 kts 251°
2026-05-04 18:45 -12.32791 49.23274 1583 ft 189 kts 172°
2026-05-04 18:45 -12.33678 49.24036 1362 ft 163 kts 120°
2026-05-04 18:45 -12.34147 49.25068 1152 ft 160 kts 103°
2026-05-04 18:46 -12.33963 49.26158 976 ft 159 kts 81°
2026-05-04 18:46 -12.33763 49.27235 682 ft 140 kts 100°
2026-05-04 18:46 -12.34163 49.28005 512 ft 115 kts 124°
2026-05-04 18:46 -12.34609 49.28671 357 ft 112 kts 125°
2026-05-04 18:47 -12.34969 49.29211 367 ft 59 kts 123°
2026-05-04 18:47 -12.35032 49.29307 371 ft 24 kts 125°
2026-05-04 18:47 -12.35164 49.29506 381 ft 34 kts 126°
2026-05-04 18:47 -12.35298 49.29688 388 ft 20 kts 140°
2026-05-04 18:48 -12.35315 49.29732 391 ft 6 kts 347°
2026-05-04 18:48 -12.35301 49.29716 390 ft 0 kts 302°
2026-05-04 18:51 -12.35298 49.29713 390 ft 2 kts 303°
2026-05-04 18:51 -12.35295 49.29709 389 ft 0 kts 304°